This is the latest recevied weather packets stored in our database for station/object BAGASKAR. If no packets are shown the sender has not sent any weather packets the latest 10 day(s).
| Time | Temp. | Humidity | Pressure | Rain* | Wind** | Luminosity | Snow |
|---|---|---|---|---|---|---|---|
| 1777537614 | 6.67° C | 100% | 1022 hPa | - | - | - | - |
| 1777536414 | 6.67° C | 100% | 1022 hPa | - | - | - | - |
| 1777535214 | 6.67° C | 100% | 1022.1 hPa | - | - | - | - |
| 1777534014 | 7.22° C | 100% | 1022.1 hPa | - | - | - | - |
| 1777532813 | 7.22° C | 99% | 1022 hPa | - | - | - | - |
| 1777531613 | 6.67° C | 100% | 1022.2 hPa | - | - | - | - |
| 1777530414 | 6.67° C | 100% | 1022 hPa | - | - | - | - |
| 1777529213 | 6.11° C | 100% | 1022.3 hPa | - | - | - | - |
| 1777528013 | 5.56° C | 100% | 1022.5 hPa | - | - | - | - |
| 1777526813 | 5.56° C | 100% | 1022.6 hPa | - | - | - | - |
| 1777525613 | 5.56° C | 100% | 1022.5 hPa | - | - | - | - |
| 1777524413 | 5° C | 100% | 1022.7 hPa | - | - | - | - |
| 1777523213 | 5° C | 100% | 1022.7 hPa | - | - | - | - |
| 1777522013 | 5° C | 100% | 1022.3 hPa | - | - | - | - |
| 1777520813 | 5° C | 99% | 1022.7 hPa | - | - | - | - |
| 1777519613 | 4.44° C | 95% | 1022.6 hPa | - | - | - | - |
| 1777518413 | 4.44° C | 93% | 1022.8 hPa | - | - | - | - |
| 1777517213 | 4.44° C | 90% | 1022.8 hPa | - | - | - | - |
| 1777516013 | 4.44° C | 88% | 1023 hPa | - | - | - | - |
| 1777514812 | 4.44° C | 83% | 1023 hPa | - | - | - | - |
| 1777513613 | 4.44° C | 80% | 1023.2 hPa | - | - | - | - |
| 1777512412 | 4.44° C | 76% | 1023.2 hPa | - | - | - | - |
| 1777511212 | 4.44° C | 76% | 1023.4 hPa | - | - | - | - |
| 1777510012 | 4.44° C | 73% | 1023.6 hPa | - | - | - | - |
| 1777508812 | 4.44° C | 73% | 1023.7 hPa | - | - | - | - |
* Rain since midnight (hover to see other rain measurements)
** Current wind speed in m/s (hover to see current wind gust speed)